Content
SEND FEEDBACK

Daily
Averages
Monthly
Summary
United States of America

FAIRFIELD, MONTANA


Home > North America > United States > Montana
Elevation: 3994 feet     Latitude: 47 37N     Longitude: 111 59W

WEATHER
 
SELECT A DAY
Number of Records: 197,080;   Date Range: 1/1/95 - 7/26/14
 
SHARE

PRINT THIS DATA

[ ← Previous Day ]
WEATHER ALMANAC - FEBRUARY 21, 2014
[ Next Day → ]
[ °C ]   °F
Weather ElementAverageHighLow
Temperature21.4 °F33.1 °F (10:53 am)14 °F (11:36 pm)
Dewpoint15.3 °F19.4 °F (6:02 pm)10.4 °F (11:49 pm)
Humidity78.9 %93 % (7:02 pm)43 % (11:53 am)
Barometer29.97 in30.18 in (11:53 pm)29.85 in (1:53 am)
Wind Speed12.3 mph21.9 mph (10:53 am)
Wind Gust28.8 mph (10:53 am)
Weather ElementAverage
Visibility4.7 mi
Wind DirectionWNW (295.6 °)

Weather ElementTotal
Precipitation0.28 in
Heating Degree Days41.5 (Base 65)
Averaged from 48 records on February 21, 2014
WEATHER CONDITIONS BREAKOUT
WIND DIRECTION BREAKOUT
WEATHER BY HOUR - FEBRUARY 21, 2014
[ °C ]   °F
Local TimeTemperatureDewpointHumidityBarometerVisibilityWind DirectionWind SpeedGust SpeedPrecipitationEventsConditions
1:53 AM27.0 °F18.0 °F69 %29.85 in10.0 miSW (230°)12.7 mphPartly Cloudy
2:53 AM24.1 °F14.0 °F65 %29.87 in10.0 miSW (220°)13.8 mphPartly Cloudy
3:53 AM24.1 °F12.0 °F60 %29.87 in10.0 miSW (230°)10.4 mphClear
4:53 AM19.9 °F12.0 °F71 %29.87 in10.0 miSW (220°)8.1 mphClear
5:53 AM21.9 °F15.1 °F75 %29.89 in10.0 miWest (260°)8.1 mphClear
6:53 AM21.0 °F15.1 °F78 %29.90 in10.0 miWest (260°)4.6 mphPartly Cloudy
7:53 AM23.0 °F17.1 °F78 %29.92 in10.0 miNW (310°)5.8 mphScattered Clouds
8:53 AM28.0 °F18.0 °F66 %29.94 in10.0 miNW (320°)15.0 mphOvercast
9:53 AM28.9 °F17.1 °F61 %29.95 in10.0 miWNW (300°)19.6 mph26.5 mphMostly Cloudy
10:53 AM33.1 °F15.1 °F48 %29.95 in10.0 miNW (320°)21.9 mph28.8 mphClear
11:53 AM33.1 °F12.9 °F43 %29.96 in10.0 miNW (320°)15.0 mphClear
12:53 PM32.0 °F12.9 °F45 %29.96 in10.0 miNW (320°)12.7 mphScattered Clouds
1:53 PM32.0 °F15.1 °F50 %29.96 in10.0 miNorth (360°)11.5 mphOvercast
2:53 PM30.0 °F15.1 °F54 %29.98 in10.0 miNNW (340°)3.5 mphOvercast
3:53 PM30.0 °F16.0 °F56 %29.99 in10.0 miNorth (360°)6.9 mph0.00 inOvercast
4:53 PM27.0 °F19.0 °F72 %30.01 in4.0 miNorth (10°)9.2 mph0.00 inSnowLight Snow
5:36 PM24.8 °F17.6 °F74 %29.87 in2.5 miNNE (20°)10.4 mph0.00 inSnowLight Snow
5:44 PM24.8 °F17.6 °F74 %29.87 in1.5 miNNE (30°)6.9 mph0.00 inSnowLight Snow
5:53 PM24.1 °F19.0 °F81 %30.04 in1.0 miNorth (360°)5.8 mph0.00 inSnowLight Snow
6:02 PM24.8 °F19.4 °F80 %29.88 in1.0 miNNE (30°)9.2 mph0.01 inSnowLight Snow
6:31 PM23.0 °F17.6 °F80 %29.90 in5.0 miNorth (10°)17.3 mph20.7 mph0.01 inSnowLight Snow
6:53 PM21.9 °F16.0 °F78 %30.10 in2.5 miNorth (360°)19.6 mph25.3 mph0.01 inSnowLight Snow
7:02 PM19.4 °F17.6 °F93 %29.93 in1.0 miNorth (360°)13.8 mph0.00 inSnowLight Snow
7:06 PM19.4 °F17.6 °F93 %29.93 in0.8 miNorth (350°)18.4 mph23.0 mph0.00 inSnowLight Snow
7:18 PM19.4 °F17.6 °F93 %29.93 in1.2 miNorth (350°)17.3 mph0.01 inSnowLight Snow
7:22 PM19.4 °F17.6 °F93 %29.93 in2.0 miNorth (350°)13.8 mph0.01 inSnowLight Snow
7:31 PM19.4 °F17.6 °F93 %29.94 in7.0 miNorth (350°)12.7 mph0.01 inSnowLight Snow
7:46 PM19.4 °F17.6 °F93 %29.95 in1.8 miNorth (360°)11.5 mph0.01 inSnowLight Snow
7:51 PM19.4 °F17.6 °F93 %29.95 in1.2 miNorth (360°)13.8 mph19.6 mph0.01 inSnowLight Snow
7:53 PM19.0 °F17.1 °F92 %30.13 in1.0 miNorth (360°)18.4 mph0.01 inSnowLight Snow
7:58 PM19.4 °F15.8 °F86 %29.95 in0.8 miNorth (350°)15.0 mph21.9 mph0.00 inSnowLight Snow
8:12 PM17.6 °F15.8 °F93 %29.95 in1.0 miNorth (360°)17.3 mph0.01 inSnowLight Snow
8:27 PM17.6 °F15.8 °F93 %29.96 in1.5 miNorth (350°)18.4 mph0.01 inSnowLight Snow
8:35 PM17.6 °F14.0 °F86 %29.97 in3.0 miNorth (350°)16.1 mph0.01 inSnowLight Snow
8:43 PM17.6 °F14.0 °F86 %29.97 in8.0 miNorth (350°)15.0 mph0.01 inSnowLight Snow
8:53 PM17.1 °F12.9 °F84 %30.15 in10.0 miNorth (350°)15.0 mph0.01 inOvercast
9:29 PM17.6 °F14.0 °F86 %29.99 in2.0 miNorth (350°)8.1 mph0.00 inSnowLight Snow
9:41 PM17.6 °F12.2 °F79 %29.99 in1.5 miNorth (350°)12.7 mph20.7 mph0.01 inSnowLight Snow
9:51 PM15.8 °F14.0 °F93 %29.99 in1.2 miNNW (340°)12.7 mph0.01 inSnowLight Snow
9:53 PM16.0 °F14.0 °F92 %30.16 in1.2 miNNW (340°)8.1 mph0.01 inSnowLight Snow
10:16 PM15.8 °F14.0 °F93 %29.99 in1.5 miNNW (340°)8.1 mph0.01 inSnowLight Snow
10:24 PM15.8 °F14.0 °F93 %29.99 in2.0 miNNW (340°)5.8 mph0.01 inSnowLight Snow
10:36 PM15.8 °F12.2 °F86 %30.00 in1.5 miNNW (340°)6.9 mph0.02 inSnowLight Snow
10:53 PM16.0 °F12.0 °F84 %30.16 in1.5 miNNW (330°)12.7 mph0.02 inSnowLight Snow
11:12 PM15.8 °F12.2 °F86 %30.00 in1.2 miNNW (330°)11.5 mph0.00 inSnowLight Snow
11:36 PM14.0 °F12.2 °F93 %30.00 in0.8 miNW (320°)15.0 mph0.01 inSnowLight Snow
11:49 PM14.0 °F10.4 °F86 %30.01 in1.0 miNNW (330°)11.5 mph0.02 inSnowLight Snow
11:53 PM14.0 °F10.9 °F88 %30.18 in1.0 miNNW (340°)10.4 mph0.02 inSnowLight Snow
Hourly data recorded from KGTF, located miles away from Fairfield, Montana







STORIES FROM OUR PARTNERS